User: anonymous   Login
Location: Rayville (historical)
(39.9992°N, 99.6815°W)
Time: 06:34:02
(UTC+00:00)
Language:

NOSS 3-1 (C) - Orbit

View from above orbital plane
View from above orbital plane
View from above satellite
View from above satellite

Ground track
Ground track

The orbit data is extracted from the following two-line orbital elements,

1 26907U 01040C   20151.05123016 0.00000000  00000-0  00000-0 0    09
2 26907  63.4064 151.3926 0470035   1.1941 358.7611 13.41316369    09
Epoch (UTC): 30 May 2020 01:13:46
Eccentricity: 0.0470035
inclination: 63.4064°
perigee height: 752 km
apogee height: 1456 km
right ascension of ascending node: 151.3926°
argument of perigee: 1.1941°
revolutions per day: 13.41316369
mean anomaly at epoch: 358.7611°
orbit number at epoch: 0

The dashed part of the orbit path shows where the satellite is in the earth's shadow,  

DLR